Regional Weather Roundup
Issued by NWS Charleston, SC

Current Version | Previous Version | Text Only | Print | Product List | Glossary Off
Versions: 1 2 3 4 5 6 7 8 9 10 11 12 13 14 15 16 17 18 19 20 21 22 23 24 25 26 27 28 29 30 31 32 33 34 35 36 37 38 39 40 41 42 43 44 45 46 47 48 49 50

000
ASUS42 KCHS 302210
RWRCHS
REGIONAL WEATHER ROUNDUP
NATIONAL WEATHER SERVICE CHARLESTON SC
600 PM EDT SAT AUG 30 2014

NOTE: "FAIR" INDICATES FEW OR NO CLOUDS BELOW 12,000 FEET WITH NO
SIGNIFICANT WEATHER AND/OR OBSTRUCTIONS TO VISIBILITY.

NOT ALL STATIONS ARE QUALITY CONTROLLED BY THE NATIONAL
WEATHER SERVICE. USE DATA WITH CAUTION...ESPECIALLY
DEWPOINT OBSERVATIONS.

SCZ027-030-031-034>040-042>050-302300-
...SOUTH CAROLINA...

CITY           SKY/WX    TMP DP  RH WIND       PRES   REMARKS
N CHARLESTON   MOSUNNY   88  72  58 E12       30.11S HX  94
WATERFRONT PRK   N/A     86 N/A N/A E17         N/A
FORT JOHNSON   NOT AVBL
MOUNT PLEASANT FAIR      84  75  74 E7        30.11S HX  92
JOHNS ISLAND   PTCLDY    84  77  79 E8        30.11S HX  94
PINOPOLIS        N/A     93  72  49 S2        30.04R HX 100
MONCKS CORNER    N/A     90  75  62 SE6       30.10F HX 100
SUMMERVILLE    FAIR      90  72  55 SE5       30.11S HX  96
BEAUFORT MCAS  PTSUNNY   89  75  63 MISG      30.10S HX  99
BEAUFORT ARPT  FAIR      88  75  66 E7        30.10S HX  97
HILTON HEAD IS MOSUNNY   86  77  74 E8        30.11F HX  97
GEORGETOWN     NOT AVBL
WALTERBORO     PTCLDY    90  64  43 SE6       30.10S HX  91
ORANGEBURG     SUNNY     91  65  41 SE8       30.08F HX  93
BARNWELL       FAIR      91  70  49 SE12      30.08S HX  97
AIKEN          LGT RAIN  90  70  51 SE9       30.11S HX  95
MANNING        FAIR      90  72  55 S5        30.10S HX  96
KINGSTREE      NOT AVBL
COLUMBIA       MOSUNNY   93  59  31 SE8       30.07F HX  92
SUMTER         SUNNY     92  66  42 SE10      30.08F HX  94
FLORENCE       MOSUNNY   92  65  40 SE10      30.10S HX  94
MYRTLE BEACH   MOSUNNY   86  73  66 SE10      30.13F HX  93
N MYRTLE BEACH SUNNY     84  73  69 SE10      30.13F HX  90

$$

GAZ063-065-086>088-099>101-113>116-118-119-134-136>141-150-302300-
...GEORGIA...

CITY           SKY/WX    TMP DP  RH WIND       PRES   REMARKS
SAVANNAH ARPT  MOSUNNY   88  72  58 SE10      30.09S HX  94
HUNTER AAF     MOSUNNY   87  75  66 SE13      30.07F HX  96
FORT STEWART   MOSUNNY   90  70  51 E13       30.07S HX  95
STATESBORO     NOT AVBL
SYLVANIA       CLEAR     88  72  57 SE7       30.08F HX  94
CLAXTON        NOT AVBL
THOMSON        SUNNY     94  73  49 S5        30.11S HX 103
AUGUSTA-BUSH   MOSUNNY   93  68  43 SE8       30.05F HX  97
AUGUSTA-DANIEL SUNNY     94  66  39 E8        30.07F HX  97
SWAINSBORO     FAIR      97  70  41 E13       30.06S HX 103
VIDALIA          N/A     91  70  49 E5        30.06R HX  97
ALMA           SUNNY     93  71  48 SE10      30.05S HX 100
WAYCROSS       MOSUNNY   95  76  53 SE12      30.05S HX 107
JESUP            N/A     91  75  59 SE6       30.07S HX 102
BRUNSWICK      SUNNY     90  72  55 E9        30.08F HX  96
SAINT SIMONS   SUNNY     86  76  71 SE10      30.08S HX  96

$$

SCZ027-028-034-036>038-045-046-048>050-GAZ119-141-302300-
...LAKE AND SUPPLEMENTAL COASTAL OBSERVATIONS...

STATION/POSITION TIME  TEMP    WIND        PRES    WAVE   SWELL
                       AIR SEA DIR/SP/G            HT/PER HT/PER/DIR
                 (UTC) (F)     (DEG/KT/KT) (MB)    (FT/S) (FT/S/D)
UPR LAKE MARION  NOT AVBL
WINYAH BAY       2100   84     120/  8     1020.0S
LAKE MURRAY      2100   91     120/  3/  9 1017.6F
ACE BASIN NERRS  2100   88     120/  3     1020.0S
FORT PULASKI     2200   84      90/ 12/ 14 1019.4R
SAPELO ISLAND    2100   88      90/  9     1020.0S

$$

ANZ835-935-AMZ111-154-330-350-352-354-374-450-454-472-302300-
...C-MAN AND BUOY OBSERVATIONS...

STATION/POSITION TIME  TEMP    WIND        PRES    WAVE   SWELL
                       AIR SEA DIR/SP/G            HT/PER HT/PER/DIR
                 (UTC) (F)     (DEG/KT/KT) (MB)    (FT/S) (FT/S/D)
FOLLY BEACH CMAN 2100   83     100/ 12/ 14 1020.0F
BUOY 41004       2200   83 84  100/ 10/ 12 1019.4F   2/ 9   2/ 9
BUOY 41008       2200   83 85   90/ 10/ 12 1018.9S   2/ 8   2/110/ 8
5E ST. MARYS GA  2200      86                N/A     2/ 8
FRYING PAN BUOY  NOT AVBL
BUOY 41025       2200   81     160/  8/ 10 1021.6S   3/ 8   3/100/ 8
CAPE LOOKOUT NC  2100   81     170/  7/  7 1021.2F
BUOY 41002       2108   82 83  140/ 10/ 12 1021.7F   3/ 8   3/120/ 8
BUOY 41010       2200   84 86  130/ 10/ 12 1019.4F   3/ 8   3/ 80/ 8
BUOY 41012       NOT AVBL
ST AUGUSTINE FL  2200   83     120/ 11/ 12 1019.1F
CAPERS NEARSHORE 2100   84     110/ 10/ 10   N/A
FRIPP NEARSHORE  NOT AVBL


$$


USA.gov is the U.S. government's official web portal to all federal, state and local government web resources and services.